Regional Weather Roundup
Issued by NWS

Home | Current Version | Previous Version | Graphics & Text | Print | Product List | Glossary Off
Versions: 1 2 3 4 5 6 7 8 9 10 11 12 13 14 15 16 17 18 19 20 21 22 23 24 25 26 27 28 29 30 31 32 33 34 35 36 37 38 39 40 41 42 43 44 45 46 47 48 49 50

000
ASUS43 KIND 231409
RWRIN

WEATHER ROUNDUP FOR INDIANA
NATIONAL WEATHER SERVICE INDIANAPOLIS IN
1000 AM EDT SUN APR 23 2017

NOTE: "FAIR" INDICATES FEW OR NO CLOUDS BELOW 12,000 FEET WITH NO
SIGNIFICANT WEATHER AND/OR OBSTRUCTIONS TO VISIBILITY.

* - STATION DOES NOT REPORT WEATHER SUCH AS PRECIPITATION OR FOG.

+ - STATION NOT QUALITY CONTROLLED BY THE NATIONAL WEATHER SERVICE.
    USE DATA WITH CAUTION...ESPECIALLY DEWPOINT AND RELATIVE
    HUMIDITY OBSERVATIONS.

INZ001>003-010>013-019-020-231500-
NORTHWEST INDIANA

CITY           SKY/WX    TMP DP  RH WIND       PRES   REMARKS
GARY /AIRPORT/ SUNNY     54  28  37 CALM      30.16S
KNOX *+        SUNNY     50   9  18 CALM      30.14F
LA PORTE +     SUNNY     54  35  49 CALM      30.15S
MICHIGAN CITY+ SUNNY     54  34  47 CALM      30.15S
MONTICELLO +   SUNNY     52  30  43 NE8       30.12F
RENSSELAER +   SUNNY     55  30  38 NE6       30.13F
VALPARAISO     SUNNY     58  33  39 N5        30.15R

$$

LMZ046-743>745-231500-
SOUTHERN LAKE MICHIGAN

STATION/POSITION TIME  TEMP    WIND        PRES    WAVE
                       AIR SEA DIR/SP/G            HT
                 (UTC) (F)     (DEG/KT/KT) (MB)    (FT)
BURNS HARBOR     1340   47     320/  3/  5 1021.7R
MICHIGAN CITY    1340   48     290/  3/  3   N/A

$$

INZ004-005-014>016-021>024-231500-
NORTH CENTRAL INDIANA

CITY           SKY/WX    TMP DP  RH WIND       PRES   REMARKS
ELKHART        SUNNY     55  34  44 CALM      30.14F
GOSHEN         SUNNY     54  35  48 CALM      30.13F
LOGANSPORT +   SUNNY     52  32  46 NE8       30.13F
PERU/GRISSOM   SUNNY     52  34  51 NE9       30.11F
ROCHESTER +    SUNNY     55  34  44 NE7       30.13S
SOUTH BEND     SUNNY     53  36  52 CALM      30.16R
WARSAW +       SUNNY     54  34  47 NE6       30.13S

$$

INZ006>009-017-018-025>027-231500-
NORTHEAST INDIANA

CITY           SKY/WX    TMP DP  RH WIND       PRES   REMARKS
ANGOLA *+      SUNNY     54  43  66 VRB3      30.12F
AUBURN +       SUNNY     54  36  50 E6        30.13F
FORT WAYNE     SUNNY     53  33  46 NE10      30.13F
HUNTINGTON +   SUNNY     52  32  46 E7        30.12F
KENDALLVILLE + SUNNY     53  36  52 NE5       30.13F

$$

INZ028-029-035-036-043>045-051>053-231500-
WEST CENTRAL INDIANA

CITY           SKY/WX    TMP DP  RH WIND       PRES   REMARKS
CRAWFORDSVL +  SUNNY     50  37  61 NE9       30.11S
GREENCASTLE +  SUNNY     52  34  50 E10       30.09S
LAFAYETTE      SUNNY     51  36  56 NE7       30.12F
TERRE HAUTE    SUNNY     53  35  50 NE15      30.09R

$$

INZ030>032-037>040-046>048-054>057-064-065-231500-
CENTRAL INDIANA

CITY           SKY/WX    TMP DP  RH WIND       PRES   REMARKS
CP ATTERBURY + SUNNY     52  37  58 NE9       30.07S
COLUMBUS       SUNNY     50  36  57 NE14      30.06S
FRANKFORT +    SUNNY     53  35  50 E12       30.13S
GREENWOOD *+   SUNNY     52  36  54 E13G22    30.08S
INDIANAPOLIS   MOSUNNY   53  35  50 NE14G24   30.08S
-EAGLE CREEK   SUNNY     53  33  46 NE13G21   30.08S
KOKOMO +       SUNNY     51  33  50 NE12      30.12F
MARION +       SUNNY     48  34  57 NE10      30.12F
MT COMFORT *+  SUNNY     52  37  58 NE14G22   30.09R
SHELBYVILLE    SUNNY     54  37  52 NE15G24   30.06S
ZIONSVILLE +   SUNNY     49  33  54 NE9       30.10F

$$

INZ033-034-041-042-049-050-058-059-231500-
EAST CENTRAL INDIANA

CITY           SKY/WX    TMP DP  RH WIND       PRES   REMARKS
MUNCIE         SUNNY     54  36  50 NE12      30.10S
RICHMOND +     SUNNY     50  34  53 E14       30.07R

$$

INZ060-061-067>069-081>083-085>088-231500-
SOUTHWEST INDIANA

CITY           SKY/WX    TMP DP  RH WIND       PRES   REMARKS
EVANSVILLE     MOSUNNY   52  40  63 NE17      30.00S
HUNTINGBURG *+ MOSUNNY   50  39  66 NE14      30.01S
WASHINGTON +   SUNNY     52  35  52 MISG      30.04R

$$

INZ062-063-066-070>080-084-089>092-231500-
SOUTH CENTRAL AND SOUTHEAST INDIANA

CITY           SKY/WX    TMP DP  RH WIND       PRES   REMARKS
BEDFORD +      SUNNY     52  34  50 NE12G20   30.03R
BLOOMINGTON    SUNNY     52  34  50 E12       30.05S
MADISON *+     SUNNY     52  36  54 NE12      30.04R
NORTH VERNON + SUNNY     52  36  54 NE13      30.05R
SEYMOUR +      SUNNY     54  37  54 NE9       30.04R

$$




USA.gov is the U.S. government's official web portal to all federal, state and local government web resources and services.